Tehachapi, CA

11:34 AM PST on December 14, 2019 (GMT -0800)
Tehachapi Municipal

Weather History for KTSP - October, 2019

Change the Weather History Date:

Friday, October 18, 2019

  Actual Average Record
Temperature  
Mean Temperature 48 °F -  
Max Temperature 59 °F 70 °F 80 °F (2011)
Min Temperature 37 °F 40 °F 33 °F (2018)
Degree Days  
Heating Degree Days 17    
Moisture  
Dew Point 35 °F    
Average Humidity 60    
Maximum Humidity 93    
Minimum Humidity 39    
Precipitation  
Precipitation 0.00 in - - ()
Sea Level Pressure  
Sea Level Pressure 30.06 in    
Wind  
Wind Speed 12 mph ()    
Max Wind Speed 20 mph    
Max Gust Speed 25 mph    
Visibility 9.1 miles    
Events      
Averages and records for this station are not official NWS values.
T = Trace of Precipitation, MM = Missing Value Source: Averaged Metar Reports

Daily Weather History Graph

Daily Weather History Graph

Search for Another Location

Airport or City:

Astronomy

Oct. 18, 2019 Rise Set
Actual Time 7:02 AM PDT 6:15 PM PDT
Civil Twilight 6:36 AM PDT 6:40 PM PDT
Nautical Twilight 6:07 AM PDT 7:10 PM PDT
Astronomical Twilight 5:37 AM PDT 7:39 PM PDT
Moon 9:44 PM PDT (10/18) 11:31 AM PDT (10/18)
Length of Visible Light 12h 04m
Length of Day
11h 12m
Waning Gibbous, 78% of the Moon is Illuminated
Oct 18
Waning Gibbous
Oct 21
Last Quarter
Oct 27
New
Nov 4
First Quarter
Nov 12
Full

Hourly Weather History & Observations

Time (PDT) Temp. Windchill Dew Point Humidity Pressure Visibility Wind Dir Wind Speed Gust Speed Precip Events Conditions
12:15 AM 46.4 °F 40.1 °F 37.4 °F 71% 30.00 in 10.0 mi West 15.0 mph 19.6 mph N/A   Overcast
12:35 AM 46.4 °F 39.2 °F 37.4 °F 71% 29.99 in 10.0 mi West 18.4 mph - N/A   Overcast
12:55 AM 46.4 °F 39.5 °F 37.4 °F 71% 29.99 in 10.0 mi West 17.3 mph - N/A   Mostly Cloudy
1:15 AM 46.4 °F 39.5 °F 37.4 °F 71% 30.01 in 10.0 mi West 17.3 mph 25.3 mph N/A   Overcast
1:35 AM 44.6 °F 36.9 °F 37.4 °F 76% 30.01 in 8.0 mi West 18.4 mph 23.0 mph N/A   Mostly Cloudy
1:55 AM 44.6 °F 37.2 °F 37.4 °F 76% 30.00 in 8.0 mi West 17.3 mph 23.0 mph N/A   Clear
2:15 AM 42.8 °F 35.8 °F 37.4 °F 81% 30.01 in 9.0 mi West 13.8 mph - N/A   Clear
2:35 AM 42.8 °F 36.6 °F 37.4 °F 81% 30.01 in 9.0 mi West 11.5 mph 20.7 mph N/A   Clear
2:55 AM 41.0 °F 34.7 °F 35.6 °F 81% 30.02 in 10.0 mi West 10.4 mph - N/A   Clear
3:15 AM 41.0 °F 33.9 °F 35.6 °F 81% 30.02 in 10.0 mi West 12.7 mph - N/A   Clear
3:35 AM 41.0 °F 33.5 °F 35.6 °F 81% 30.01 in 10.0 mi West 13.8 mph - N/A   Clear
3:55 AM 41.0 °F 34.3 °F 35.6 °F 81% 30.01 in 10.0 mi West 11.5 mph - N/A   Clear
4:15 AM 41.0 °F 33.9 °F 35.6 °F 81% 30.00 in 10.0 mi West 12.7 mph 18.4 mph N/A   Clear
4:35 AM 41.0 °F 35.2 °F 33.8 °F 76% 30.01 in 10.0 mi West 9.2 mph - N/A   Clear
4:55 AM 41.0 °F 35.2 °F 33.8 °F 76% 30.02 in 10.0 mi WNW 9.2 mph - N/A   Clear
5:15 AM 41.0 °F 34.7 °F 33.8 °F 76% 30.03 in 10.0 mi WNW 10.4 mph - N/A   Clear
5:35 AM 41.0 °F 33.5 °F 33.8 °F 76% 30.03 in 10.0 mi WNW 13.8 mph 18.4 mph N/A   Clear
5:55 AM 41.0 °F 34.7 °F 32.0 °F 70% 30.04 in 10.0 mi WNW 10.4 mph - N/A   Clear
6:15 AM 42.8 °F 37.0 °F 32.0 °F 66% 30.05 in 10.0 mi NW 10.4 mph - N/A   Partly Cloudy
6:35 AM 39.2 °F 35.0 °F 33.8 °F 81% 30.05 in 10.0 mi NNW 5.8 mph - N/A   Clear
6:55 AM 37.4 °F 31.4 °F 32.0 °F 81% 30.06 in 9.0 mi SW 8.1 mph - N/A   Clear
7:15 AM 37.4 °F 32.1 °F 35.6 °F 93% 30.06 in 9.0 mi WNW 6.9 mph - N/A   Clear
7:35 AM 39.2 °F 34.2 °F 35.6 °F 87% 30.07 in 9.0 mi WNW 6.9 mph - N/A   Clear
7:55 AM 41.0 °F - 37.4 °F 87% 30.09 in 8.0 mi Calm Calm - N/A   Clear
8:15 AM 42.8 °F 41.1 °F 37.4 °F 81% 30.09 in 8.0 mi NW 3.5 mph - N/A   Clear
8:35 AM 46.4 °F 44.3 °F 37.4 °F 71% 30.11 in 9.0 mi NW 4.6 mph - N/A   Clear
8:55 AM 50.0 °F - 35.6 °F 58% 30.11 in 10.0 mi NW 6.9 mph - N/A   Clear
9:15 AM 50.0 °F - 32.0 °F 50% 30.11 in 9.0 mi NW 8.1 mph - N/A   Clear
9:35 AM 51.8 °F - 32.0 °F 47% 30.10 in 10.0 mi NW 9.2 mph - N/A   Clear
9:55 AM 53.6 °F - 33.8 °F 47% 30.10 in 9.0 mi WNW 9.2 mph - N/A   Clear
10:15 AM 55.4 °F - 35.6 °F 47% 30.10 in 10.0 mi WNW 9.2 mph - N/A   Clear
10:35 AM 53.6 °F - 35.6 °F 51% 30.11 in 10.0 mi NW 15.0 mph 20.7 mph N/A   Clear
10:55 AM 53.6 °F - 35.6 °F 51% 30.11 in 9.0 mi NW 17.3 mph - N/A   Clear
11:15 AM 55.4 °F - 35.6 °F 47% 30.11 in 9.0 mi NW 15.0 mph 20.7 mph N/A   Clear
11:35 AM 55.4 °F - 35.6 °F 47% 30.11 in 7.0 mi NW 12.7 mph 19.6 mph N/A   Clear
11:55 AM 57.2 °F - 35.6 °F 44% 30.11 in 9.0 mi NW 13.8 mph - N/A   Clear
12:15 PM 57.2 °F - 35.6 °F 44% 30.10 in 6.0 mi NW 12.7 mph - N/A   Haze
12:35 PM 57.2 °F - 35.6 °F 44% 30.10 in 5.0 mi NW 11.5 mph - N/A   Haze
12:55 PM 57.2 °F - 35.6 °F 44% 30.09 in 5.0 mi NW 10.4 mph 17.3 mph N/A   Haze
1:15 PM 59.0 °F - 35.6 °F 42% 30.08 in 8.0 mi NW 12.7 mph - N/A   Clear
1:35 PM 59.0 °F - 35.6 °F 42% 30.08 in 7.0 mi NW 12.7 mph 18.4 mph N/A   Clear
1:55 PM 59.0 °F - 33.8 °F 39% 30.07 in 8.0 mi NW 13.8 mph 19.6 mph N/A   Clear
2:15 PM 59.0 °F - 35.6 °F 42% 30.07 in 5.0 mi NW 16.1 mph 21.9 mph N/A   Haze
2:35 PM 59.0 °F - 35.6 °F 42% 30.07 in 6.0 mi NW 15.0 mph 21.9 mph N/A   Haze
2:55 PM 57.2 °F - 35.6 °F 44% 30.07 in 7.0 mi NW 17.3 mph 23.0 mph N/A   Clear
3:15 PM 57.2 °F - 35.6 °F 44% 30.07 in 8.0 mi NW 11.5 mph 20.7 mph N/A   Clear
3:35 PM 57.2 °F - 35.6 °F 44% 30.07 in 8.0 mi NW 15.0 mph 18.4 mph N/A   Clear
3:55 PM 57.2 °F - 35.6 °F 44% 30.06 in 9.0 mi NW 15.0 mph 20.7 mph N/A   Clear
4:15 PM 57.2 °F - 33.8 °F 41% 30.06 in 8.0 mi NW 17.3 mph - N/A   Clear
4:35 PM 55.4 °F - 33.8 °F 44% 30.05 in 8.0 mi NW 18.4 mph 21.9 mph N/A   Clear
4:55 PM 55.4 °F - 33.8 °F 44% 30.06 in 9.0 mi WNW 19.6 mph - N/A   Clear
5:15 PM 53.6 °F - 32.0 °F 44% 30.05 in 8.0 mi NW 18.4 mph 21.9 mph N/A   Clear
5:35 PM 53.6 °F - 32.0 °F 44% 30.05 in 10.0 mi WNW 16.1 mph - N/A   Clear
5:55 PM 51.8 °F - 32.0 °F 47% 30.05 in 10.0 mi WNW 12.7 mph - N/A   Clear
6:15 PM 50.0 °F - 32.0 °F 50% 30.05 in 10.0 mi WNW 13.8 mph - N/A   Clear
6:35 PM 48.2 °F - 33.8 °F 58% 30.05 in 10.0 mi WNW 12.7 mph - N/A   Clear
6:55 PM 48.2 °F - 33.8 °F 58% 30.06 in 10.0 mi WNW 11.5 mph - N/A   Clear
7:15 PM 48.2 °F - 33.8 °F 58% 30.07 in 10.0 mi WNW 9.2 mph - N/A   Clear
7:35 PM 46.4 °F 41.5 °F 33.8 °F 62% 30.07 in 10.0 mi WNW 10.4 mph - N/A   Clear
7:55 PM 46.4 °F 41.9 °F 33.8 °F 62% 30.08 in 10.0 mi West 9.2 mph - N/A   Clear
8:15 PM 44.6 °F 39.2 °F 33.8 °F 66% 30.08 in 10.0 mi WNW 10.4 mph - N/A   Clear
8:35 PM 46.4 °F 41.5 °F 33.8 °F 62% 30.08 in 10.0 mi West 10.4 mph - N/A   Clear
8:55 PM 46.4 °F 42.4 °F 32.0 °F 57% 30.08 in 10.0 mi WNW 8.1 mph - N/A   Clear
9:15 PM 46.4 °F 41.1 °F 32.0 °F 57% 30.08 in 10.0 mi WNW 11.5 mph - N/A   Clear
9:35 PM 46.4 °F 41.5 °F 32.0 °F 57% 30.09 in 10.0 mi WNW 10.4 mph - N/A   Clear
9:55 PM 46.4 °F 42.9 °F 32.0 °F 57% 30.09 in 10.0 mi North 6.9 mph - N/A   Clear
10:15 PM 44.6 °F 40.2 °F 32.0 °F 61% 30.09 in 10.0 mi WNW 8.1 mph - N/A   Clear
10:35 PM 46.4 °F 40.7 °F 32.0 °F 57% 30.09 in 10.0 mi NW 12.7 mph - N/A   Clear
10:55 PM 46.4 °F 41.5 °F 32.0 °F 57% 30.09 in 10.0 mi WNW 10.4 mph - N/A   Clear
11:15 PM 46.4 °F 41.1 °F 32.0 °F 57% 30.09 in 10.0 mi WNW 11.5 mph - N/A   Clear
11:35 PM 46.4 °F 41.1 °F 32.0 °F 57% 30.08 in 10.0 mi NW 11.5 mph - N/A   Clear
11:55 PM 46.4 °F 41.1 °F 33.8 °F 62% 30.08 in 10.0 mi NW 11.5 mph - N/A   Clear